| time (UTC) | temp F | wind direction | speed MPH | gust MPH | rain 1hr in | rain 24hr in | rain mn in | humidity % | barometer mb |
| 20260503022750 | 46 | 30 | 1.0 | 1.0 | 0.00 | 0.16 | 0.16 | 68 | 1010.5 |
| 20260503022245 | 46 | 261 | 0.0 | 0.0 | 0.00 | 0.16 | 0.16 | 67 | 1010.6 |
| 20260503021742 | 46 | 247 | 0.0 | 0.0 | 0.00 | 0.16 | 0.16 | 65 | 1010.6 |
| 20260503021238 | 47 | 247 | 0.0 | 0.0 | 0.00 | 0.16 | 0.16 | 68 | 1010.5 |
| 20260503020736 | 47 | 256 | 0.0 | 1.0 | 0.00 | 0.16 | 0.16 | 68 | 1010.5 |
| 20260503020233 | 47 | 264 | 1.0 | 1.0 | 0.00 | 0.16 | 0.16 | 66 | 1010.5 |
| 20260503015730 | 47 | 269 | 0.0 | 0.0 | 0.00 | 0.16 | 0.16 | 64 | 1010.4 |
| 20260503015227 | 47 | 277 | 0.0 | 0.0 | 0.00 | 0.16 | 0.16 | 62 | 1010.6 |
| 20260503014722 | 47 | 288 | 0.0 | 0.0 | 0.00 | 0.16 | 0.16 | 63 | 1010.4 |
| 20260503014221 | 48 | 268 | 1.0 | 1.0 | 0.00 | 0.16 | 0.16 | 64 | 1010.3 |
| 20260503013718 | 48 | 260 | 1.0 | 1.0 | 0.00 | 0.16 | 0.16 | 61 | 1010.3 |
| 20260503013216 | 47 | 279 | 0.0 | 0.0 | 0.00 | 0.16 | 0.16 | 61 | 1010.2 |
| 20260503012713 | 48 | 258 | 1.0 | 1.0 | 0.00 | 0.16 | 0.16 | 62 | 1010.3 |
| 20260503012210 | 48 | 235 | 1.0 | 1.0 | 0.00 | 0.16 | 0.16 | 63 | 1010.4 |
| 20260503011706 | 48 | 273 | 1.0 | 1.0 | 0.00 | 0.16 | 0.16 | 61 | 1010.1 |
| 20260503011203 | 48 | 268 | 0.0 | 1.0 | 0.00 | 0.16 | 0.16 | 59 | 1010.2 |
| 20260503010659 | 48 | 276 | 1.0 | 1.0 | 0.00 | 0.16 | 0.16 | 59 | 1010.2 |
| 20260503010156 | 49 | 278 | 0.0 | 0.0 | 0.00 | 0.16 | 0.16 | 58 | 1010.2 |
| 20260503005654 | 50 | 285 | 0.0 | 1.0 | 0.00 | 0.16 | 0.16 | 60 | 1010.1 |
| 20260503005151 | 50 | 290 | 0.0 | 0.0 | 0.00 | 0.16 | 0.16 | 59 | 1010.0 |
| 20260503004647 | 50 | 274 | 1.0 | 1.0 | 0.00 | 0.16 | 0.16 | 60 | 1010.0 |
| 20260503004146 | 50 | 241 | 1.0 | 1.0 | 0.00 | 0.16 | 0.16 | 59 | 1009.9 |
| 20260503003642 | 50 | 267 | 1.0 | 1.0 | 0.00 | 0.16 | 0.16 | 59 | 1010.0 |
| 20260503003139 | 51 | 274 | 0.0 | 1.0 | 0.00 | 0.16 | 0.16 | 53 | 1009.8 |
| 20260503002636 | 51 | 281 | 0.0 | 1.0 | 0.00 | 0.16 | 0.16 | 55 | 1010.0 |
| 20260503002133 | 51 | 260 | 1.0 | 1.0 | 0.00 | 0.16 | 0.16 | 51 | 1009.9 |
| 20260503001629 | 52 | 270 | 1.0 | 1.0 | 0.00 | 0.16 | 0.16 | 51 | 1009.9 |
| 20260503001126 | 52 | 275 | 0.0 | 1.0 | 0.00 | 0.16 | 0.16 | 48 | 1009.7 |
| 20260503000624 | 53 | 284 | 0.0 | 0.0 | 0.00 | 0.16 | 0.16 | 46 | 1009.6 |
| 20260503000120 | 53 | 293 | 0.0 | 0.0 | 0.00 | 0.16 | 0.16 | 45 | 1009.7 |
| 20260502235617 | 54 | 273 | 0.0 | 0.0 | 0.00 | 0.16 | 0.16 | 49 | 1009.7 |
| 20260502235115 | 54 | 255 | 0.0 | 0.0 | 0.00 | 0.16 | 0.16 | 46 | 1009.7 |
| 20260502234616 | 54 | 294 | 0.0 | 0.0 | 0.00 | 0.16 | 0.16 | 44 | 1009.7 |
| 20260502234114 | 55 | 72 | 1.0 | 1.0 | 0.00 | 0.16 | 0.16 | 41 | 1009.4 |
| 20260502233609 | 55 | 250 | 1.0 | 2.0 | 0.00 | 0.16 | 0.16 | 44 | 1009.5 |
| 20260502233106 | 55 | 216 | 2.0 | 2.0 | 0.00 | 0.16 | 0.16 | 40 | 1009.4 |
| 20260502232602 | 55 | 305 | 1.0 | 1.0 | 0.00 | 0.16 | 0.16 | 40 | 1009.4 |
| 20260502232100 | 55 | 328 | 0.0 | 0.0 | 0.00 | 0.16 | 0.16 | 47 | 1009.4 |
| 20260502231556 | 55 | 220 | 2.0 | 3.0 | 0.00 | 0.16 | 0.16 | 46 | 1009.4 |
| 20260502231054 | 55 | 292 | 0.0 | 0.0 | 0.00 | 0.16 | 0.16 | 50 | 1009.3 |
| 20260502230552 | 55 | 296 | 0.0 | 0.0 | 0.00 | 0.16 | 0.16 | 43 | 1009.2 |
| 20260502230050 | 56 | 283 | 0.0 | 0.0 | 0.00 | 0.16 | 0.16 | 45 | 1009.2 |
| 20260502225546 | 56 | 280 | 0.0 | 0.0 | 0.00 | 0.16 | 0.16 | 44 | 1009.1 |
| 20260502225043 | 56 | 280 | 1.0 | 2.0 | 0.00 | 0.16 | 0.16 | 40 | 1009.1 |
| 20260502224539 | 56 | 264 | 0.0 | 1.0 | 0.00 | 0.16 | 0.16 | 39 | 1008.9 |
| 20260502224036 | 57 | 263 | 0.0 | 1.0 | 0.00 | 0.16 | 0.16 | 44 | 1008.9 |
| 20260502223534 | 57 | 349 | 1.0 | 1.0 | 0.00 | 0.16 | 0.16 | 41 | 1009.0 |
| 20260502223032 | 57 | 281 | 2.0 | 3.0 | 0.00 | 0.16 | 0.16 | 41 | 1008.9 |
| 20260502222529 | 57 | 302 | 0.0 | 0.0 | 0.00 | 0.16 | 0.16 | 40 | 1009.1 |
| 20260502222025 | 58 | 288 | 1.0 | 1.0 | 0.00 | 0.16 | 0.16 | 37 | 1009.0 |
| 20260502221521 | 58 | 293 | 0.0 | 1.0 | 0.00 | 0.16 | 0.16 | 42 | 1008.7 |
| 20260502221019 | 58 | 351 | 1.0 | 1.0 | 0.00 | 0.16 | 0.16 | 39 | 1008.7 |
| 20260502220514 | 58 | 307 | 0.0 | 0.0 | 0.00 | 0.16 | 0.16 | 44 | 1008.8 |
| 20260502220011 | 58 | 104 | 2.0 | 2.0 | 0.00 | 0.16 | 0.16 | 43 | 1008.7 |
| 20260502215509 | 58 | 296 | 1.0 | 1.0 | 0.00 | 0.16 | 0.16 | 43 | 1008.6 |
| 20260502215005 | 58 | 282 | 0.0 | 0.0 | 0.00 | 0.16 | 0.16 | 39 | 1008.5 |
| 20260502214502 | 59 | 262 | 0.0 | 1.0 | 0.00 | 0.16 | 0.16 | 41 | 1008.7 |
| 20260502213959 | 59 | 169 | 3.0 | 4.0 | 0.00 | 0.16 | 0.16 | 47 | 1008.6 |
| 20260502213456 | 58 | 297 | 0.0 | 0.0 | 0.00 | 0.16 | 0.16 | 47 | 1008.7 |
| 20260502212954 | 59 | 286 | 0.0 | 0.0 | 0.00 | 0.16 | 0.16 | 51 | 1008.4 |
| 20260502212453 | 59 | 304 | 0.0 | 0.0 | 0.00 | 0.16 | 0.16 | 47 | 1008.5 |
| 20260502211949 | 59 | 279 | 1.0 | 1.0 | 0.00 | 0.16 | 0.16 | 46 | 1008.3 |
| 20260502211445 | 58 | 270 | 0.0 | 1.0 | 0.00 | 0.16 | 0.16 | 46 | 1008.3 |
| 20260502210943 | 60 | 302 | 0.0 | 1.0 | 0.00 | 0.16 | 0.16 | 45 | 1008.3 |
| 20260502210439 | 60 | 295 | 0.0 | 0.0 | 0.00 | 0.16 | 0.16 | 48 | 1008.3 |
| 20260502205937 | 60 | 292 | 0.0 | 0.0 | 0.00 | 0.16 | 0.16 | 51 | 1008.2 |
| 20260502205433 | 59 | 336 | 0.0 | 0.0 | 0.00 | 0.16 | 0.16 | 51 | 1008.5 |
| 20260502204930 | 58 | 305 | 0.0 | 1.0 | 0.00 | 0.16 | 0.16 | 54 | 1008.4 |
| 20260502204427 | 58 | 336 | 0.0 | 0.0 | 0.00 | 0.16 | 0.16 | 53 | 1008.3 |
| 20260502203925 | 57 | 337 | 1.0 | 1.0 | 0.00 | 0.16 | 0.16 | 54 | 1008.3 |
| 20260502203422 | 57 | 14 | 1.0 | 2.0 | 0.00 | 0.16 | 0.16 | 53 | 1008.2 |
| 20260502202918 | 57 | 343 | 1.0 | 2.0 | 0.00 | 0.16 | 0.16 | 53 | 1008.4 |
| 20260502202415 | 59 | 349 | 1.0 | 1.0 | 0.00 | 0.16 | 0.16 | 54 | 1008.4 |
| 20260502201913 | 58 | 294 | 0.0 | 1.0 | 0.00 | 0.16 | 0.16 | 54 | 1008.5 |
| 20260502201409 | 57 | 342 | 1.0 | 1.0 | 0.00 | 0.16 | 0.16 | 54 | 1008.7 |
| 20260502200906 | 57 | 334 | 2.0 | 3.0 | 0.00 | 0.16 | 0.16 | 56 | 1008.7 |
| 20260502200401 | 58 | 357 | 3.0 | 4.0 | 0.00 | 0.16 | 0.16 | 51 | 1008.6 |
| 20260502195859 | 59 | 353 | 2.0 | 3.0 | 0.00 | 0.16 | 0.16 | 46 | 1008.5 |
| 20260502195356 | 60 | 289 | 2.0 | 2.0 | 0.00 | 0.16 | 0.16 | 50 | 1008.6 |
| 20260502194852 | 59 | 238 | 1.0 | 1.0 | 0.00 | 0.16 | 0.16 | 46 | 1008.6 |
| 20260502194349 | 61 | 332 | 0.0 | 0.0 | 0.00 | 0.16 | 0.16 | 46 | 1008.8 |
| 20260502193845 | 58 | 280 | 0.0 | 0.0 | 0.00 | 0.16 | 0.16 | 51 | 1008.8 |
| 20260502193343 | 58 | 358 | 1.0 | 1.0 | 0.00 | 0.16 | 0.16 | 52 | 1009.0 |
| 20260502192838 | 59 | 298 | 1.0 | 1.0 | 0.00 | 0.16 | 0.16 | 51 | 1009.1 |
| 20260502192335 | 59 | 304 | 0.0 | 0.0 | 0.00 | 0.16 | 0.16 | 53 | 1009.1 |
| 20260502191832 | 58 | 91 | 2.0 | 2.0 | 0.00 | 0.16 | 0.16 | 53 | 1009.4 |
| 20260502191331 | 57 | 54 | 1.0 | 2.0 | 0.00 | 0.16 | 0.16 | 57 | 1009.4 |
| 20260502190827 | 56 | 310 | 0.0 | 0.0 | 0.00 | 0.16 | 0.16 | 58 | 1009.4 |
| 20260502190325 | 57 | 354 | 3.0 | 3.0 | 0.00 | 0.16 | 0.16 | 60 | 1009.6 |
| 20260502185820 | 57 | 326 | 1.0 | 1.0 | 0.00 | 0.16 | 0.16 | 62 | 1009.5 |
| 20260502185316 | 57 | 33 | 3.0 | 4.0 | 0.00 | 0.16 | 0.16 | 58 | 1009.5 |
| 20260502184813 | 58 | 289 | 1.0 | 2.0 | 0.00 | 0.16 | 0.16 | 55 | 1009.6 |
| 20260502184309 | 57 | 273 | 1.0 | 1.0 | 0.00 | 0.16 | 0.16 | 59 | 1009.7 |
| 20260502183806 | 56 | 197 | 1.0 | 2.0 | 0.00 | 0.16 | 0.16 | 62 | 1009.7 |
| 20260502183302 | 57 | 312 | 0.0 | 0.0 | 0.00 | 0.16 | 0.16 | 64 | 1009.7 |
| 20260502182757 | 56 | 297 | 0.0 | 0.0 | 0.00 | 0.16 | 0.16 | 64 | 1009.8 |
| 20260502182253 | 55 | 55 | 1.0 | 1.0 | 0.00 | 0.16 | 0.16 | 64 | 1009.9 |
| 20260502181749 | 58 | 310 | 1.0 | 1.0 | 0.00 | 0.16 | 0.16 | 60 | 1009.8 |
| 20260502181243 | 57 | 307 | 0.0 | 0.0 | 0.00 | 0.16 | 0.16 | 63 | 1009.8 |
| 20260502180740 | 56 | 324 | 1.0 | 2.0 | 0.00 | 0.16 | 0.16 | 64 | 1009.9 |
| 20260502180237 | 56 | 296 | 1.0 | 1.0 | 0.00 | 0.16 | 0.16 | 66 | 1009.9 |
| 20260502170155 | 53 | 58 | 4.0 | 6.0 | 0.00 | 0.16 | 0.16 | 64 | 1010.4 |
| 20260502164143 | 54 | 16 | 3.0 | 4.0 | 0.00 | 0.16 | 0.16 | 66 | 1010.6 |
| 20260502163638 | 54 | 39 | 2.0 | 2.0 | 0.00 | 0.16 | 0.16 | 67 | 1010.6 |
| 20260502163135 | 53 | 8 | 1.0 | 2.0 | 0.00 | 0.16 | 0.16 | 70 | 1010.7 |
| 20260502162631 | 51 | 318 | 0.0 | 0.0 | 0.00 | 0.16 | 0.16 | 75 | 1010.9 |
| 20260502162128 | 50 | 46 | 2.0 | 3.0 | 0.00 | 0.16 | 0.16 | 76 | 1010.9 |
| 20260502161626 | 50 | 333 | 1.0 | 2.0 | 0.00 | 0.16 | 0.16 | 76 | 1010.9 |
| 20260502161123 | 50 | 333 | 1.0 | 2.0 | 0.00 | 0.16 | 0.16 | 78 | 1011.0 |
| 20260502160621 | 50 | 317 | 1.0 | 2.0 | 0.00 | 0.16 | 0.16 | 77 | 1011.1 |
| 20260502160119 | 50 | 323 | 0.0 | 0.0 | 0.00 | 0.16 | 0.16 | 77 | 1011.0 |
| 20260502152033 | 55 | 317 | 1.0 | 1.0 | 0.00 | 0.16 | 0.16 | 69 | 1010.7 |
| 20260502151530 | 57 | 271 | 1.0 | 1.0 | 0.00 | 0.16 | 0.16 | 65 | 1010.6 |
| 20260502151027 | 57 | 241 | 1.0 | 1.0 | 0.00 | 0.16 | 0.16 | 67 | 1010.9 |
| 20260502150525 | 56 | 248 | 4.0 | 4.0 | 0.00 | 0.16 | 0.16 | 70 | 1010.7 |
| 20260502130410 | 50 | 291 | 0.0 | 0.0 | 0.00 | 0.16 | 0.16 | 89 | 1011.1 |
| 20260502123352 | 50 | 284 | 1.0 | 1.0 | 0.00 | 0.16 | 0.16 | 93 | 1010.5 |
| 20260502122850 | 51 | 244 | 1.0 | 1.0 | 0.00 | 0.16 | 0.16 | 95 | 1010.6 |
| 20260502122345 | 50 | 206 | 2.0 | 2.0 | 0.00 | 0.16 | 0.16 | 96 | 1010.8 |
| 20260502121844 | 49 | 276 | 1.0 | 1.0 | 0.00 | 0.16 | 0.16 | 97 | 1010.6 |
| 20260502121341 | 49 | 233 | 3.0 | 6.0 | 0.00 | 0.16 | 0.16 | 98 | 1010.8 |
| 20260502120838 | 49 | 279 | 0.0 | 1.0 | 0.00 | 0.16 | 0.16 | 99 | 1010.6 |
| 20260502120334 | 49 | 151 | 2.0 | 2.0 | 0.00 | 0.16 | 0.16 | 99 | 1010.6 |
| 20260502115832 | 49 | 288 | 1.0 | 2.0 | 0.00 | 0.16 | 0.16 | 99 | 1010.7 |
| 20260502115329 | 50 | 265 | 0.0 | 1.0 | 0.00 | 0.16 | 0.16 | 99 | 1010.7 |
| 20260502114825 | 50 | 297 | 0.0 | 0.0 | 0.00 | 0.16 | 0.16 | 99 | 1010.6 |
| 20260502114322 | 50 | 292 | 0.0 | 0.0 | 0.00 | 0.16 | 0.16 | 99 | 1010.6 |
| 20260502113819 | 48 | 295 | 0.0 | 1.0 | 0.00 | 0.16 | 0.16 | 99 | 1010.5 |
| 20260502113317 | 48 | 295 | 0.0 | 0.0 | 0.00 | 0.16 | 0.16 | 99 | 1010.8 |
| 20260502112815 | 48 | 291 | 0.0 | 0.0 | 0.00 | 0.16 | 0.16 | 99 | 1010.7 |
| 20260502112312 | 48 | 283 | 0.0 | 0.0 | 0.00 | 0.16 | 0.16 | 99 | 1010.7 |
| 20260502111809 | 48 | 277 | 0.0 | 1.0 | 0.00 | 0.16 | 0.16 | 99 | 1010.7 |
| 20260502111307 | 48 | 285 | 0.0 | 0.0 | 0.00 | 0.16 | 0.16 | 99 | 1010.5 |
| 20260502110804 | 48 | 268 | 0.0 | 0.0 | 0.00 | 0.16 | 0.16 | 99 | 1010.5 |
| 20260502110302 | 48 | 279 | 0.0 | 0.0 | 0.00 | 0.16 | 0.16 | 99 | 1010.4 |
| 20260502105759 | 47 | 286 | 0.0 | 0.0 | 0.00 | 0.16 | 0.16 | 99 | 1010.4 |
| 20260502105255 | 46 | 286 | 0.0 | 0.0 | 0.00 | 0.16 | 0.16 | 99 | 1010.3 |
| 20260502104754 | 46 | 284 | 0.0 | 0.0 | 0.00 | 0.16 | 0.16 | 99 | 1010.1 |
| 20260502104251 | 46 | 290 | 0.0 | 0.0 | 0.00 | 0.16 | 0.16 | 99 | 1010.2 |
| 20260502103748 | 46 | 289 | 0.0 | 0.0 | 0.00 | 0.16 | 0.16 | 99 | 1010.1 |
| 20260502103245 | 46 | 288 | 0.0 | 0.0 | 0.00 | 0.16 | 0.16 | 99 | 1010.1 |
| 20260502102742 | 46 | 283 | 0.0 | 0.0 | 0.00 | 0.16 | 0.16 | 99 | 1009.9 |
| 20260502102239 | 46 | 283 | 0.0 | 0.0 | 0.00 | 0.16 | 0.16 | 99 | 1010.1 |
| 20260502101737 | 47 | 283 | 0.0 | 0.0 | 0.00 | 0.16 | 0.16 | 99 | 1009.9 |
| 20260502101235 | 47 | 265 | 0.0 | 0.0 | 0.00 | 0.16 | 0.16 | 99 | 1010.1 |
| 20260502100733 | 47 | 272 | 0.0 | 0.0 | 0.00 | 0.16 | 0.16 | 99 | 1010.0 |
| 20260502100231 | 47 | 281 | 0.0 | 0.0 | 0.07 | 0.16 | 0.16 | 99 | 1009.9 |
| 20260502091205 | 47 | 279 | 1.0 | 1.0 | 0.31 | 0.13 | 0.13 | 99 | 1009.8 |
| 20260502090703 | 47 | 291 | 0.0 | 0.0 | 0.12 | 0.10 | 0.10 | 99 | 1009.9 |
| 20260502090159 | 47 | 288 | 0.0 | 0.0 | 0.00 | 0.08 | 0.08 | 99 | 1010.1 |
| 20260502071055 | 48 | 295 | 0.0 | 0.0 | 0.00 | 0.03 | 0.03 | 97 | 1010.5 |
| 20260502070553 | 48 | 283 | 0.0 | 0.0 | 0.00 | 0.03 | 0.03 | 97 | 1010.5 |
| 20260502070050 | 48 | 282 | 0.0 | 0.0 | 0.00 | 0.03 | 0.03 | 97 | 1010.7 |
| 20260502065549 | 48 | 287 | 0.0 | 0.0 | 0.00 | 0.03 | 0.03 | 97 | 1010.5 |
| 20260502065041 | 48 | 278 | 1.0 | 1.0 | 0.00 | 0.03 | 0.03 | 96 | 1010.5 |
| 20260502064539 | 48 | 285 | 0.0 | 0.0 | 0.00 | 0.03 | 0.03 | 97 | 1010.4 |
| 20260502064036 | 48 | 219 | 2.0 | 2.0 | 0.00 | 0.03 | 0.03 | 97 | 1010.7 |
| 20260502063534 | 48 | 282 | 0.0 | 0.0 | 0.00 | 0.03 | 0.03 | 97 | 1010.8 |
| 20260502063031 | 48 | 281 | 0.0 | 0.0 | 0.07 | 0.03 | 0.03 | 96 | 1010.7 |
| 20260502062528 | 48 | 266 | 0.0 | 1.0 | 0.07 | 0.03 | 0.03 | 96 | 1010.6 |
| 20260502062027 | 48 | 262 | 0.0 | 0.0 | 0.00 | 0.02 | 0.02 | 96 | 1010.4 |
| 20260502061524 | 48 | 277 | 0.0 | 1.0 | 0.00 | 0.02 | 0.02 | 96 | 1010.4 |
| 20260502061021 | 48 | 280 | 0.0 | 0.0 | 0.05 | 0.02 | 0.02 | 96 | 1010.5 |
| 20260502060516 | 48 | 284 | 0.0 | 0.0 | 0.05 | 0.02 | 0.02 | 96 | 1010.6 |
| 20260502060013 | 48 | 272 | 0.0 | 0.0 | 0.05 | 0.02 | 0.02 | 95 | 1010.5 |
| 20260502055510 | 48 | 280 | 1.0 | 1.0 | 0.00 | 0.01 | 0.01 | 95 | 1010.5 |
| 20260502055009 | 48 | 245 | 1.0 | 1.0 | 0.00 | 0.01 | 0.01 | 95 | 1010.4 |
| 20260502054508 | 48 | 273 | 1.0 | 1.0 | 0.00 | 0.01 | 0.01 | 95 | 1010.3 |
| 20260502054004 | 48 | 283 | 0.0 | 0.0 | 0.00 | 0.01 | 0.01 | 94 | 1010.3 |
| 20260502053501 | 48 | 263 | 0.0 | 1.0 | 0.00 | 0.01 | 0.01 | 94 | 1010.4 |
| 20260502052959 | 48 | 250 | 1.0 | 1.0 | 0.00 | 0.01 | 0.01 | 93 | 1010.4 |
| 20260502052457 | 49 | 268 | 1.0 | 1.0 | 0.00 | 0.01 | 0.01 | 92 | 1010.4 |
| 20260502051955 | 49 | 268 | 0.0 | 1.0 | 0.07 | 0.01 | 0.01 | 91 | 1010.7 |
| 20260502051453 | 49 | 281 | 0.0 | 0.0 | 0.07 | 0.01 | 0.01 | 91 | 1010.6 |
| 20260502050950 | 49 | 235 | 1.0 | 1.0 | 0.00 | 0.00 | 0.00 | 90 | 1010.7 |
| 20260502050446 | 49 | 268 | 1.0 | 1.0 | 0.00 | 0.00 | 0.00 | 89 | 1010.7 |
| 20260502045944 | 49 | 252 | 1.0 | 1.0 | 0.00 | 0.00 | 0.00 | 88 | 1010.3 |
| 20260502045440 | 49 | 265 | 0.0 | 1.0 | 0.00 | 0.00 | 0.00 | 88 | 1010.1 |
| 20260502044937 | 49 | 293 | 0.0 | 0.0 | 0.00 | 0.00 | 0.00 | 87 | 1010.0 |
| 20260502044433 | 50 | 294 | 0.0 | 0.0 | 0.00 | 0.00 | 0.00 | 86 | 1010.0 |
| 20260502043930 | 50 | 287 | 0.0 | 0.0 | 0.00 | 0.00 | 0.00 | 84 | 1010.2 |
| 20260502043428 | 50 | 278 | 0.0 | 0.0 | 0.00 | 0.00 | 0.00 | 84 | 1010.1 |
| 20260502042927 | 50 | 281 | 0.0 | 0.0 | 0.00 | 0.00 | 0.00 | 84 | 1010.0 |
| 20260502042425 | 50 | 259 | 1.0 | 1.0 | 0.00 | 0.00 | 0.00 | 84 | 1010.2 |
| 20260502041921 | 50 | 269 | 0.0 | 0.0 | 0.00 | 0.00 | 0.00 | 83 | 1010.1 |
| 20260502041420 | 50 | 276 | 0.0 | 1.0 | 0.00 | 0.00 | 0.00 | 83 | 1010.2 |
| 20260502040916 | 50 | 272 | 1.0 | 1.0 | 0.00 | 0.00 | 0.00 | 84 | 1010.1 |
| 20260502040413 | 50 | 284 | 0.0 | 0.0 | 0.00 | 0.00 | 0.00 | 85 | 1010.1 |
| 20260502035909 | 50 | 277 | 0.0 | 1.0 | 0.00 | 0.00 | 0.00 | 84 | 1010.1 |
| 20260502035406 | 50 | 279 | 0.0 | 0.0 | 0.00 | 0.00 | 0.00 | 84 | 1010.2 |
| 20260502034903 | 50 | 278 | 0.0 | 0.0 | 0.00 | 0.00 | 0.00 | 84 | 1010.1 |
| 20260502034402 | 50 | 275 | 0.0 | 0.0 | 0.00 | 0.00 | 0.00 | 83 | 1009.9 |
| 20260502033900 | 50 | 282 | 0.0 | 0.0 | 0.00 | 0.00 | 0.00 | 82 | 1010.1 |
| 20260502033357 | 50 | 286 | 0.0 | 0.0 | 0.00 | 0.00 | 0.00 | 82 | 1010.2 |
| 20260502032854 | 50 | 267 | 0.0 | 0.0 | 0.00 | 0.00 | 0.00 | 81 | 1010.2 |
| 20260502032349 | 51 | 242 | 1.0 | 1.0 | 0.00 | 0.00 | 0.00 | 81 | 1010.2 |
| 20260502031847 | 50 | 286 | 0.0 | 0.0 | 0.00 | 0.00 | 0.00 | 81 | 1010.1 |
| 20260502031345 | 50 | 293 | 0.0 | 0.0 | 0.00 | 0.00 | 0.00 | 83 | 1009.8 |
| 20260502030843 | 50 | 278 | 0.0 | 0.0 | 0.00 | 0.00 | 0.00 | 82 | 1010.1 |
| 20260502030341 | 50 | 273 | 1.0 | 1.0 | 0.00 | 0.00 | 0.00 | 81 | 1010.2 |
| 20260502025838 | 50 | 249 | 1.0 | 2.0 | 0.00 | 0.00 | 0.00 | 79 | 1010.3 |
| 20260502025336 | 50 | 267 | 1.0 | 1.0 | 0.00 | 0.00 | 0.00 | 80 | 1010.4 |
| 20260502024834 | 49 | 264 | 1.0 | 1.0 | 0.00 | 0.00 | 0.00 | 82 | 1010.3 |
| 20260502024331 | 49 | 266 | 1.0 | 1.0 | 0.00 | 0.00 | 0.00 | 82 | 1010.3 |
| 20260502023829 | 49 | 272 | 1.0 | 1.0 | 0.00 | 0.00 | 0.00 | 83 | 1010.3 |
| 20260502023327 | 49 | 259 | 0.0 | 1.0 | 0.00 | 0.00 | 0.00 | 84 | 1010.3 |
| 20260502022824 | 49 | 268 | 0.0 | 0.0 | 0.00 | 0.00 | 0.00 | 83 | 1010.2 |